Wind_Speed
8 7 8 7 8 9 8 7 9 10 10 9 10 11 15 17 17 16 20 19 20 21 28 24 23 24 21 17 6 5 7 3 1 4 3 4 5 5 4 4 7 9 8 4 4 4 8 9 5 4 2 2 5 16
8 8 7 7 8 7 8 11 12 12 13 13 17 19 20 22 21 19 22 22 23 29 25 15 19 30 39 41 25 15 12 4 4 2 2 2 4 2 4 4 1 3 7 5 9 6 3 7 5 5 3 4 6 11
9 8 8 9 10 11 12 13 13 15 15 16 19 20 22 24 23 19 22 24 26 29 37 40 37 39 39 39 38 34 30 25 16 18 4 3 6 3 3 5 3 4 5 3 1 4 5 8 8 10 7 7 7 10
10 9 9 9 11 13 12 12 12 13 14 15 16 18 20 23 26 25 26 27 25 21 14 15 13 32 29 32 39 49 48 35 24 12 5 4 3 6 4 4 4 4 1 3 5 4 2 9 15 11 9 8 9 14
11 11 10 11 12 12 13 14 14 15 16 17 19 20 22 24 28 30 33 33 30 27 10 7 12 14 25 34 42 43 43 38 35 27 9 4 5 5 5 1 9 6 5 4 5 5 5 5 19 16 13 12 11 11
11 10 10 12 12 12 14 16 18 19 20 21 22 24 25 28 28 30 27 22 30 42 16 7 24 36 43 37 42 48 43 38 34 19 13 17 16 6 4 7 7 27 31 28 7 7 13 5 15 15 14 11 10 9
9 10 11 12 13 14 16 18 20 21 23 25 27 29 30 32 33 35 15 4 7 14 11 6 7 11 31 39 44 41 39 27 29 31 29 27 14 13 14 22 13 23 20 17 14 10 6 15 9 15 13 11 10 11
10 10 11 13 14 15 18 20 22 24 26 28 31 35 37 37 41 48 56 53 41 32 15 5 5 3 19 14 12 27 19 20 17 15 14 17 6 18 8 10 29 33 32 21 17 18 10 11 10 13 12 12 11 10
11 12 12 13 15 17 19 22 23 26 27 32 36 38 39 34 30 45 45 48 48 40 6 9 13 7 15 8 14 15 18 5 10 8 12 13 11 12 15 13 16 23 34 34 26 19 14 12 14 13 12 11 11 12
11 12 13 14 17 19 21 22 25 26 30 35 33 11 8 8 25 18 10 13 22 20 16 3 7 5 17 7 6 7 8 4 4 7 11 7 16 45 37 24 23 30 33 25 23 17 16 16 15 13 11 10 9 9
11 12 14 17 19 20 22 24 25 27 30 17 6 9 24 35 30 8 6 6 7 3 8 8 15 5 10 5 3 11 2 3 4 5 7 5 5 22 32 27 23 25 27 22 19 14 15 13 13 12 10 9 9 9
12 14 16 18 20 21 23 23 25 26 22 25 24 35 31 6 7 5 3 2 4 4 6 4 7 11 9 8 3 6 4 4 6 9 6 4 11 22 37 34 28 25 24 21 17 14 12 12 13 12 9 8 10 10
13 15 18 21 22 23 22 25 27 28 26 19 7 6 5 5 4 3 6 3 2 2 5 6 3 8 6 7 4 3 5 5 2 5 4 2 2 18 31 32 28 25 23 20 19 12 10 10 12 12 11 11 10 11
14 17 20 20 21 19 23 25 28 21 7 5 5 5 2 3 2 2 3 3 7 9 11 6 6 3 6 4 3 3 3 1 4 4 2 2 8 17 21 23 25 23 21 20 20 17 15 13 13 14 14 14 12 11
16 17 19 16 16 20 23 26 19 9 5 4 5 4 2 7 8 13 15 10 10 12 11 4 3 5 2 3 3 1 2 3 3 2 2 6 13 19 21 21 22 22 21 21 21 19 18 16 16 18 17 16 15 13
15 19 14 16 19 22 24 18 6 5 4 3 2 4 11 5 5 8 13 13 8 12 7 7 2 4 2 1 2 0 1 2 3 2 11 17 18 19 19 20 22 23 23 25 25 23 21 19 19 21 20 19 17 14
14 13 16 19 21 23 17 5 3 3 1 2 2 5 11 7 9 13 19 11 18 11 0 1 1 2 2 2 3 3 2 3 10 14 21 22 22 22 22 24 25 26 27 26 26 24 23 21 19 18 19 18 15 13
13 13 16 19 22 20 5 1 2 1 1 2 3 10 14 12 16 16 17 19 11 5 3 3 5 5 3 1 2 3 10 21 24 24 25 24 24 24 25 26 27 26 26 26 25 23 20 18 17 17 15 14 11 10
11 14 15 19 18 10 2 0 1 1 1 2 6 10 8 12 16 17 16 11 10 10 6 4 3 2 2 5 8 16 19 20 22 25 25 23 22 22 22 22 22 22 22 20 19 19 17 14 14 13 12 10 9 9
11 10 14 14 11 3 1 1 2 1 2 3 6 8 4 11 18 21 21 17 12 6 6 4 4 6 5 18 21 24 26 27 29 28 25 22 20 20 21 21 22 20 20 19 18 16 15 15 14 12 10 9 7 7
8 12 12 9 3 4 2 3 2 2 3 3 8 6 3 6 19 27 27 19 15 8 3 11 13 20 26 26 25 23 21 18 18 23 23 21 17 16 16 16 14 14 14 13 13 13 10 10 9 7 6 4 4 3
11 12 7 5 3 2 3 7 3 4 4 4 5 6 6 5 9 13 15 15 8 12 11 13 18 22 24 24 22 20 17 15 16 16 15 13 14 13 14 12 9 11 11 11 9 8 7 6 4 3 2 2 2 3
11 6 3 4 1 4 1 6 2 5 3 7 4 4 4 5 9 6 6 8 7 14 13 17 19 18 19 17 14 14 12 10 12 13 12 11 12 13 11 11 10 9 8 8 6 4 2 1 1 1 2 2 4 5
5 3 4 4 6 1 4 5 4 4 4 4 3 3 4 6 8 7 3 5 11 11 10 10 11 15 16 16 17 17 15 12 13 14 13 11 12 13 10 10 8 7 6 5 3 1 0 0 1 2 3 4 5 5
2 6 4 5 5 4 6 5 6 5 2 3 3 3 3 5 3 3 2 3 10 12 11 11 10 11 15 14 13 13 12 10 9 12 13 10 9 9 9 8 6 5 5 3 1 2 2 3 4 4 4 5 6 6
4 5 3 1 4 3 0 2 3 1 1 3 1 4 5 3 4 1 1 3 4 6 7 7 8 8 10 10 9 9 10 10 9 7 10 9 8 6 6 6 5 5 4 3 3 3 4 4 5 5 5 6 7 8
3 2 2 2 1 2 3 3 2 4 3 2 2 3 3 4 1 0 1 2 3 5 6 7 6 6 9 9 9 9 9 8 8 8 9 9 7 7 5 4 3 3 3 4 5 4 4 4 5 6 6 6 9 11
3 2 2 3 4 5 3 2 2 1 1 4 2 4 4 4 1 1 2 5 5 6 5 6 9 9 9 10 10 9 9 9 8 9 8 7 5 5 5 4 3 4 5 6 6 6 6 6 7 7 7 7 7 9
3 2 2 4 3 5 5 2 0 2 3 3 3 1 2 3 3 4 5 5 5 6 5 7 8 9 9 10 10 10 9 9 8 8 7 6 6 7 6 6 6 7 7 8 8 8 7 8 10 9 8 8 8 8
2 2 3 2 3 1 2 2 3 5 5 5 5 6 7 7 6 6 6 6 6 6 6 8 8 9 9 9 10 11 11 10 8 7 7 6 7 7 7 8 8 9 9 9 8 8 8 9 10 10 11 11 11 10
2 2 3 3 3 2 4 5 5 5 4 6 8 9 7 6 8 7 8 7 8 7 8 7 8 9 8 9 10 11 12 12 11 10 9 8 8 10 10 11 10 9 9 8 8 8 9 9 10 11 11 11 12 11
2 3 3 3 2 4 4 2 2 3 3 3 3 5 5 3 3 4 6 7 8 7 7 8 7 8 9 9 10 10 11 12 11 11 12 12 12 13 13 13 13 12 11 10 9 9 10 10 11 11 12 12 11 10
3 4 4 4 3 2 2 3 2 2 3 2 3 3 3 3 3 4 7 6 6 6 6 6 7 6 6 6 6 7 8 9 9 10 11 12 14 14 15 14 14 13 12 11 10 10 10 10 11 12 11 10 8 6
Wind_Direction
234 248 255 281 293 296 315 290 277 281 287 276 254 259 268 271 274 272 271 263 255 265 268 253 254 245 257 267 243 265 333 234 132 170 194 214 212 236 235 202 179 171 166 197 173 209 273 163 120 195 207 188 196 192
246 239 259 272 276 268 289 286 284 280 277 272 269 268 269 271 274 276 275 266 274 263 256 255 262 256 245 250 255 256 237 269 264 204 233 290 249 243 216 254 123 227 193 181 191 214 241 201 218 207 208 190 191 201
231 242 250 259 273 288 295 297 296 292 286 282 280 278 277 276 276 274 276 273 277 278 280 259 252 251 250 247 243 244 248 240 237 257 303 250 243 145 217 240 249 253 183 225 158 244 224 214 222 163 201 197 189 193
230 238 247 264 284 293 295 294 293 293 296 297 293 288 284 280 278 276 274 268 269 271 274 271 273 248 252 247 244 240 238 234 239 242 247 232 235 208 234 242 206 231 134 236 268 274 257 236 223 211 199 206 193 184
234 247 254 271 282 289 295 297 300 298 294 292 290 287 286 286 284 281 275 268 259 242 263 272 264 258 247 246 244 240 234 233 238 246 243 238 241 257 251 312 242 202 219 197 239 266 254 245 207 203 202 200 201 206
231 247 260 274 282 293 299 299 300 297 296 294 292 289 285 285 287 287 287 273 262 241 256 263 271 255 248 237 233 229 227 226 227 231 239 241 235 289 245 248 229 243 250 245 251 250 226 243 189 194 192 195 199 204
240 256 272 281 290 296 296 298 298 297 297 297 297 294 289 284 277 259 242 290 200 229 239 264 265 252 235 227 227 239 236 226 224 234 238 254 242 237 245 252 242 281 286 266 256 217 186 188 207 197 195 201 207 209
255 267 278 285 293 300 304 305 304 302 301 300 299 295 292 285 277 264 252 248 236 257 259 253 267 238 188 187 201 209 212 205 214 222 235 227 247 216 258 257 231 240 250 243 233 219 238 216 209 201 197 196 201 210
265 275 279 289 302 304 304 304 306 306 304 305 305 303 293 280 258 262 264 255 241 218 224 202 224 240 180 176 182 179 188 198 201 215 223 208 221 223 246 201 216 225 225 235 224 220 217 202 206 207 210 215 216 221
267 274 287 298 300 304 305 307 310 307 311 309 309 297 261 220 301 287 190 186 195 192 218 234 182 179 174 157 161 171 170 207 209 216 180 218 229 234 239 246 234 225 225 209 189 196 200 197 204 209 208 208 200 213
274 283 292 301 304 304 305 307 307 314 313 319 280 250 287 297 300 219 215 194 184 208 210 186 185 142 184 165 163 200 194 210 218 208 194 210 237 221 217 211 211 209 203 199 202 201 202 203 199 201 197 190 186 192
277 288 298 302 303 305 305 304 312 312 303 289 280 287 291 261 240 200 194 180 224 228 192 180 176 153 163 156 165 183 212 196 249 153 191 236 228 187 190 195 185 182 183 184 185 178 185 186 193 196 189 182 180 175
285 293 299 301 303 305 303 306 309 307 302 296 252 249 239 252 268 208 204 200 229 317 174 163 157 149 151 172 172 196 219 230 172 205 234 340 89 153 168 165 166 169 172 171 167 169 176 178 182 179 163 165 165 164
293 299 301 306 305 299 302 309 311 309 288 245 248 272 259 313 347 317 327 296 298 294 309 252 163 182 165 157 204 231 215 191 238 241 252 348 115 129 152 156 154 151 155 155 140 151 152 154 152 148 151 149 145 153
297 301 312 306 301 306 313 314 310 281 239 247 288 269 294 330 299 314 315 291 279 287 285 246 228 175 143 192 200 112 243 247 345 3 32 72 119 138 140 147 148 145 145 139 136 133 137 140 139 134 131 128 131 138
301 304 316 312 315 319 321 315 294 209 240 244 264 300 314 306 308 318 314 304 317 306 271 231 194 150 195 121 98 301 343 353 9 41 72 99 108 114 119 124 128 130 132 125 123 124 125 129 131 123 119 117 118 122
304 306 320 319 320 327 324 315 205 221 314 314 302 302 330 290 289 310 310 302 323 293 266 7 85 69 87 66 60 21 17 77 77 73 97 103 101 105 113 119 122 121 116 116 118 122 121 118 116 115 113 110 117 123
297 309 315 319 325 331 305 289 198 170 44 2 310 330 336 316 320 333 332 343 339 352 31 45 36 37 43 84 87 103 93 90 96 96 102 106 109 111 109 105 105 106 109 112 112 112 111 113 114 112 110 112 122 129
311 316 318 323 327 327 299 324 98 131 56 0 349 347 332 327 347 354 8 13 41 62 83 68 64 50 36 56 103 101 101 103 98 98 96 95 97 101 102 103 104 106 109 110 114 113 115 114 113 118 120 127 133 132
313 312 324 325 334 308 284 45 33 355 45 338 319 335 345 8 7 24 29 25 45 61 45 43 23 5 38 69 99 107 113 116 112 99 92 91 94 98 98 101 103 106 107 109 106 107 112 114 114 116 122 129 138 147
332 335 332 339 331 32 56 15 40 16 333 345 356 8 17 20 25 28 26 44 55 31 56 45 59 79 94 105 112 115 115 116 111 111 109 100 97 99 102 102 108 112 113 112 114 112 113 110 112 119 124 134 156 186
332 334 330 352 6 60 55 18 355 342 347 336 4 22 41 20 8 12 25 31 42 20 31 58 73 82 87 84 85 91 100 109 110 108 104 102 101 102 105 104 113 111 110 106 105 105 102 101 108 121 153 185 226 249
331 341 359 7 8 26 16 1 29 18 51 342 9 35 20 16 13 21 60 28 25 37 63 71 76 81 87 89 99 103 103 113 111 106 104 105 107 106 110 112 108 105 106 106 104 102 106 114 209 250 284 285 283 280
359 33 28 36 21 346 346 24 18 10 41 28 36 21 356 349 4 63 66 28 11 49 59 58 73 87 94 97 92 93 92 97 110 110 103 110 112 107 107 106 106 107 105 101 98 109 107 318 322 325 320 311 304 305
22 12 14 350 20 28 26 5 349 32 38 337 51 6 351 350 62 56 67 27 23 48 58 67 78 83 84 84 87 90 95 95 95 106 102 95 98 108 113 111 105 95 88 81 65 27 2 358 353 350 344 328 317 323
76 19 61 14 345 64 197 39 18 340 69 31 330 329 360 73 63 53 28 12 23 58 70 78 76 91 95 86 87 97 100 100 90 106 105 103 105 100 98 95 89 86 84 65 44 6 342 338 334 333 328 321 318 321
78 304 55 42 351 79 60 73 76 79 59 42 305 18 53 62 15 358 93 55 89 85 79 85 90 99 98 94 93 97 100 99 102 102 101 100 91 82 79 78 69 53 38 10 356 353 348 341 334 329 327 323 317 321
90 66 104 13 61 38 112 45 52 49 293 357 30 37 115 154 174 34 81 107 103 91 90 98 101 96 93 88 90 97 99 100 101 96 95 83 65 51 46 30 5 352 349 346 342 337 333 328 323 326 327 321 322 324
85 66 94 50 68 56 41 105 190 40 358 5 104 82 89 78 88 116 124 114 100 100 97 104 103 95 85 73 75 82 84 83 76 64 62 53 36 24 9 354 338 324 320 320 319 322 321 322 325 331 330 328 328 328
69 63 100 77 84 59 40 61 88 82 64 75 94 106 96 99 96 117 126 120 112 112 113 113 102 100 92 87 83 85 83 80 75 70 56 41 23 8 357 347 337 326 318 312 306 305 309 311 310 311 315 317 316 315
96 101 93 75 98 88 95 119 104 91 77 74 106 119 114 111 95 98 110 116 116 109 117 106 97 99 97 93 91 87 83 78 71 63 53 41 28 12 6 1 354 346 335 324 312 304 303 304 306 311 312 311 311 311
68 70 109 98 109 122 117 90 82 75 79 83 86 101 116 106 94 133 125 119 119 121 120 130 107 104 103 102 96 89 80 68 56 49 46 35 27 21 17 9 2 355 347 339 330 322 316 313 311 312 312 313 312 308
93 80 85 103 114 130 109 121 88 92 73 80 85 114 99 104 124 153 165 152 136 133 141 140 147 128 114 101 91 82 71 60 49 36 29 25 20 14 11 7 3 359 353 346 340 335 327 323 322 321 321 318 312 306
Height
1502 1503 1503 1505 1506 1507 1504 1505 1506 1506 1508 1508 1510 1510 1512 1513 1514 1512 1512 1512 1512 1506 1500 1503 1504 1504 1505 1505 1505 1499 1497 1492 1493 1496 1496 1493 1494 1479 1472 1467 1472 1474 1484 1488 1487 1486 1467 1434 1441 1443 1435 1433 1433 1434
1499 1497 1498 1502 1503 1502 1503 1501 1502 1501 1502 1503 1506 1505 1506 1506 1507 1509 1506 1506 1506 1501 1491 1492 1492 1494 1496 1498 1499 1497 1494 1490 1489 1489 1488 1486 1480 1476 1469 1464 1460 1463 1452 1460 1458 1447 1433 1433 1430 1432 1433 1432 1432 1433
1493 1492 1496 1497 1499 1499 1497 1499 1497 1498 1497 1497 1500 1500 1499 1498 1498 1502 1501 1500 1498 1491 1479 1477 1477 1479 1483 1486 1488 1489 1486 1488 1483 1483 1482 1478 1474 1467 1465 1462 1453 1447 1443 1446 1443 1431 1431 1431 1432 1427 1432 1432 1431 1432
1489 1489 1490 1492 1495 1495 1492 1494 1493 1491 1493 1490 1493 1495 1493 1492 1491 1492 1492 1493 1494 1490 1473 1463 1464 1465 1467 1469 1470 1471 1474 1479 1479 1478 1477 1472 1468 1458 1458 1453 1452 1446 1444 1441 1439 1431 1431 1429 1429 1429 1430 1432 1432 1431
1485 1487 1487 1488 1490 1490 1490 1489 1488 1487 1486 1485 1485 1486 1486 1484 1484 1482 1481 1482 1486 1489 1466 1453 1450 1453 1456 1456 1457 1460 1464 1470 1473 1475 1468 1463 1460 1460 1454 1451 1440 1441 1440 1441 1436 1427 1426 1421 1423 1426 1428 1429 1431 1433
1481 1483 1482 1485 1484 1482 1484 1485 1482 1483 1480 1478 1477 1477 1477 1475 1475 1474 1465 1464 1467 1468 1465 1447 1428 1430 1434 1440 1444 1448 1454 1458 1461 1461 1458 1455 1454 1455 1448 1440 1427 1429 1429 1429 1426 1425 1423 1423 1423 1424 1425 1427 1429 1431
1478 1479 1480 1479 1479 1476 1477 1477 1477 1476 1473 1470 1467 1466 1465 1464 1464 1462 1455 1458 1458 1462 1459 1443 1424 1413 1418 1427 1433 1439 1444 1446 1451 1451 1447 1447 1448 1449 1440 1424 1425 1421 1423 1427 1426 1424 1423 1421 1422 1423 1423 1425 1427 1429
1475 1474 1474 1476 1473 1471 1471 1470 1470 1467 1465 1461 1457 1454 1450 1448 1445 1435 1428 1441 1454 1457 1455 1439 1416 1413 1412 1417 1422 1427 1432 1437 1436 1435 1435 1436 1439 1439 1426 1403 1412 1418 1421 1420 1423 1422 1420 1420 1421 1423 1423 1423 1424 1427
1472 1471 1470 1468 1468 1467 1466 1464 1462 1459 1456 1451 1445 1438 1431 1424 1419 1409 1415 1419 1428 1438 1424 1415 1408 1405 1409 1409 1414 1417 1420 1421 1422 1420 1421 1428 1422 1416 1395 1401 1405 1407 1408 1412 1414 1417 1417 1417 1420 1421 1421 1421 1422 1425
1466 1464 1464 1463 1462 1461 1459 1457 1455 1452 1448 1441 1434 1428 1420 1412 1408 1405 1401 1403 1404 1404 1407 1398 1397 1398 1403 1403 1406 1410 1410 1410 1408 1404 1406 1404 1395 1391 1395 1396 1397 1397 1400 1404 1408 1412 1413 1412 1416 1418 1419 1420 1420 1423
1459 1458 1459 1458 1457 1455 1453 1451 1448 1445 1440 1435 1429 1420 1414 1410 1404 1395 1393 1393 1392 1391 1388 1385 1390 1391 1395 1397 1400 1403 1401 1398 1393 1389 1392 1383 1373 1371 1381 1385 1388 1389 1394 1400 1402 1405 1407 1410 1412 1415 1417 1418 1419 1422
1453 1454 1454 1453 1451 1449 1447 1444 1442 1439 1436 1432 1426 1416 1408 1400 1393 1387 1387 1387 1385 1382 1379 1379 1382 1383 1389 1390 1395 1396 1394 1392 1380 1377 1376 1368 1345 1356 1365 1374 1381 1386 1390 1394 1398 1399 1404 1406 1410 1413 1415 1417 1420 1422
1450 1450 1449 1448 1445 1443 1440 1437 1434 1430 1425 1421 1418 1411 1401 1393 1387 1380 1381 1378 1376 1376 1375 1375 1378 1378 1382 1383 1387 1388 1384 1378 1376 1367 1359 1362 1358 1357 1361 1368 1376 1382 1387 1390 1393 1395 1400 1404 1409 1412 1411 1417 1420 1423
1446 1445 1444 1441 1438 1436 1434 1430 1426 1422 1420 1417 1411 1402 1398 1393 1393 1391 1390 1387 1382 1379 1377 1374 1374 1374 1375 1380 1381 1375 1374 1374 1366 1361 1362 1368 1366 1365 1368 1372 1374 1380 1386 1390 1386 1396 1402 1406 1408 1410 1412 1416 1418 1424
1442 1440 1438 1435 1433 1430 1427 1422 1418 1416 1416 1413 1408 1400 1397 1397 1394 1391 1387 1384 1380 1376 1374 1371 1370 1370 1369 1373 1371 1372 1372 1364 1367 1365 1370 1371 1370 1370 1371 1374 1378 1381 1385 1388 1390 1395 1403 1409 1411 1413 1415 1415 1419 1425
1437 1435 1433 1430 1427 1424 1419 1415 1412 1413 1411 1409 1407 1404 1400 1395 1391 1389 1385 1380 1376 1372 1369 1367 1364 1366 1367 1367 1371 1375 1370 1374 1376 1378 1378 1377 1376 1377 1378 1380 1383 1386 1390 1390 1394 1399 1405 1411 1415 1415 1416 1418 1422 1428
1433 1431 1428 1425 1421 1418 1413 1411 1410 1409 1408 1406 1404 1403 1400 1397 1393 1389 1383 1377 1374 1372 1365 1364 1365 1369 1370 1374 1376 1379 1382 1383 1383 1385 1383 1383 1385 1386 1387 1389 1392 1394 1394 1397 1401 1407 1412 1416 1418 1418 1420 1422 1427 1433
1428 1427 1424 1420 1416 1412 1409 1408 1408 1407 1406 1405 1404 1402 1398 1396 1392 1387 1380 1374 1372 1368 1366 1369 1371 1373 1378 1381 1381 1387 1388 1389 1391 1392 1392 1393 1395 1397 1397 1397 1398 1400 1403 1406 1409 1412 1416 1418 1421 1424 1426 1428 1432 1436
1425 1422 1419 1416 1412 1410 1408 1408 1407 1406 1406 1405 1404 1402 1399 1396 1392 1387 1380 1375 1372 1371 1373 1378 1383 1384 1385 1386 1388 1390 1392 1394 1396 1398 1399 1401 1402 1402 1403 1405 1406 1409 1411 1413 1416 1418 1420 1422 1424 1428 1429 1432 1434 1436
1421 1419 1416 1412 1410 1408 1407 1407 1407 1406 1405 1406 1404 1402 1400 1398 1394 1387 1381 1377 1375 1375 1381 1387 1392 1394 1393 1393 1394 1395 1398 1400 1400 1402 1406 1408 1409 1409 1410 1411 1412 1415 1416 1418 1421 1424 1426 1427 1429 1430 1432 1435 1437 1439
1418 1415 1412 1410 1408 1408 1408 1407 1406 1406 1405 1404 1404 1402 1402 1401 1397 1393 1389 1387 1383 1393 1399 1404 1402 1400 1398 1398 1400 1402 1404 1406 1407 1408 1410 1412 1414 1415 1417 1418 1420 1421 1422 1425 1426 1428 1430 1430 1432 1434 1435 1436 1439 1440
1415 1413 1410 1409 1408 1407 1408 1408 1408 1407 1406 1405 1404 1404 1404 1405 1404 1404 1404 1401 1407 1411 1410 1409 1407 1405 1404 1405 1407 1409 1411 1412 1412 1414 1415 1416 1417 1419 1420 1423 1425 1425 1426 1428 1430 1431 1432 1433 1434 1436 1437 1438 1439 1437
1412 1411 1410 1409 1409 1408 1412 1409 1408 1408 1408 1407 1405 1407 1409 1410 1411 1411 1415 1420 1421 1420 1419 1416 1414 1413 1412 1414 1415 1416 1417 1418 1418 1419 1420 1421 1422 1423 1425 1426 1427 1428 1430 1432 1433 1435 1435 1436 1437 1437 1437 1436 1436 1435
1411 1411 1410 1410 1412 1413 1412 1410 1410 1410 1410 1412 1415 1417 1416 1414 1413 1417 1427 1428 1428 1425 1423 1422 1422 1421 1421 1421 1421 1422 1423 1424 1424 1425 1426 1427 1427 1428 1429 1430 1431 1432 1434 1435 1436 1437 1437 1437 1437 1436 1434 1434 1434 1434
1414 1417 1416 1416 1415 1414 1418 1418 1416 1415 1422 1421 1420 1420 1420 1419 1424 1431 1433 1433 1432 1430 1428 1427 1427 1426 1426 1426 1427 1427 1428 1429 1429 1428 1429 1431 1431 1431 1432 1434 1435 1435 1435 1436 1437 1437 1437 1436 1435 1434 1433 1433 1432 1432
1419 1420 1419 1420 1420 1419 1422 1424 1424 1424 1424 1425 1424 1421 1420 1423 1432 1438 1436 1435 1434 1433 1433 1432 1432 1432 1431 1432 1432 1431 1431 1432 1432 1433 1433 1434 1434 1435 1435 1435 1436 1437 1438 1437 1436 1436 1435 1435 1434 1433 1432 1432 1431 1430
1422 1422 1422 1421 1421 1421 1422 1422 1423 1423 1428 1429 1426 1425 1428 1439 1441 1437 1436 1436 1436 1435 1435 1435 1435 1435 1435 1435 1435 1435 1434 1434 1435 1435 1435 1436 1437 1437 1437 1438 1438 1438 1437 1436 1436 1435 1435 1433 1432 1432 1431 1431 1429 1427
1421 1422 1423 1423 1422 1423 1424 1426 1428 1429 1428 1427 1427 1432 1437 1438 1438 1437 1437 1437 1437 1437 1437 1438 1437 1438 1437 1438 1437 1437 1437 1437 1437 1437 1438 1438 1439 1439 1437 1438 1437 1438 1437 1435 1435 1434 1433 1432 1431 1431 1430 1429 1427 1425
1422 1423 1424 1424 1425 1426 1428 1429 1429 1429 1429 1428 1429 1432 1434 1435 1437 1437 1437 1438 1439 1439 1440 1440 1440 1440 1440 1439 1438 1438 1438 1438 1439 1439 1438 1439 1440 1440 1438 1438 1438 1437 1436 1435 1434 1433 1432 1431 1430 1429 1428 1427 1425 1423
1423 1423 1424 1426 1427 1430 1430 1430 1430 1430 1430 1430 1431 1433 1435 1437 1438 1439 1440 1440 1441 1441 1441 1442 1442 1442 1442 1442 1442 1442 1441 1442 1442 1442 1440 1442 1442 1441 1440 1439 1437 1435 1434 1433 1432 1431 1431 1430 1428 1427 1426 1424 1423 1421
1423 1424 1425 1427 1429 1430 1430 1431 1431 1432 1432 1432 1433 1434 1436 1439 1440 1441 1441 1441 1442 1443 1444 1444 1444 1444 1444 1444 1444 1444 1444 1445 1445 1445 1444 1444 1442 1441 1439 1438 1436 1434 1433 1432 1430 1429 1428 1427 1426 1424 1423 1421 1419 1418
1424 1424 1425 1428 1431 1432 1432 1432 1433 1434 1435 1435 1436 1437 1439 1440 1442 1444 1444 1445 1445 1445 1446 1446 1447 1448 1448 1448 1449 1449 1448 1448 1447 1447 1446 1445 1444 1442 1440 1438 1436 1434 1432 1430 1429 1427 1426 1424 1423 1421 1419 1418 1416 1415
1425 1426 1426 1428 1430 1431 1433 1433 1434 1435 1436 1437 1438 1438 1439 1440 1443 1445 1445 1446 1447 1448 1448 1449 1450 1450 1451 1451 1451 1451 1450 1449 1449 1448 1447 1446 1444 1442 1441 1438 1436 1434 1431 1429 1427 1425 1423 1422 1420 1418 1416 1414 1413 1413